Year,Month,Day,Hour,Minute,Value (Times are PST for windspeed in km/hr)
2006,12,23,00,00,3.80
2006,12,23,00,01,3.20
2006,12,23,00,02,2.20
2006,12,23,00,03,3.50
2006,12,23,00,04,5.70
2006,12,23,00,05,7.00
2006,12,23,00,06,7.20
2006,12,23,00,07,8.40
2006,12,23,00,08,5.80
2006,12,23,00,09,3.60
2006,12,23,00,10,1.10
2006,12,23,00,11,1.60
2006,12,23,00,12,0.90
2006,12,23,00,13,0.50
2006,12,23,00,14,3.40
2006,12,23,00,15,1.50
2006,12,23,00,16,2.80
2006,12,23,00,17,0.90
2006,12,23,00,18,2.80
2006,12,23,00,19,4.30
2006,12,23,00,20,3.10
2006,12,23,00,21,3.50
2006,12,23,00,22,3.80
2006,12,23,00,23,1.70
2006,12,23,00,24,2.30
2006,12,23,00,25,4.00
2006,12,23,00,26,4.60
2006,12,23,00,27,3.80
2006,12,23,00,28,3.60
2006,12,23,00,29,4.20
2006,12,23,00,30,2.40
2006,12,23,00,31,0.80
2006,12,23,00,32,2.10
2006,12,23,00,33,3.70
2006,12,23,00,34,7.00
2006,12,23,00,35,8.80
2006,12,23,00,36,5.50
2006,12,23,00,37,4.70
2006,12,23,00,38,6.00
2006,12,23,00,39,3.60
2006,12,23,00,40,6.60
2006,12,23,00,41,3.90
2006,12,23,00,42,4.80
2006,12,23,00,43,7.20
2006,12,23,00,44,11.90
2006,12,23,00,45,16.90
2006,12,23,00,46,8.60
2006,12,23,00,47,19.90
2006,12,23,00,48,12.60
2006,12,23,00,49,15.80
2006,12,23,00,50,17.10
2006,12,23,00,51,16.50
2006,12,23,00,52,13.00
2006,12,23,00,53,12.00
2006,12,23,00,54,8.00
2006,12,23,00,55,13.00
2006,12,23,00,56,12.60
2006,12,23,00,57,13.40
2006,12,23,00,58,13.20
2006,12,23,00,59,8.40
2006,12,23,01,00,11.40
2006,12,23,01,01,8.20
2006,12,23,01,02,10.00
2006,12,23,01,03,8.30
2006,12,23,01,04,14.70
2006,12,23,01,05,14.50
2006,12,23,01,06,12.60
2006,12,23,01,07,10.20
2006,12,23,01,08,9.30
2006,12,23,01,09,8.10
2006,12,23,01,10,9.20
2006,12,23,01,11,4.90
2006,12,23,01,12,9.80
2006,12,23,01,13,9.40
2006,12,23,01,14,5.60
2006,12,23,01,15,11.10
2006,12,23,01,16,10.80
2006,12,23,01,17,5.60
2006,12,23,01,18,6.80
2006,12,23,01,19,7.20
2006,12,23,01,20,8.30
2006,12,23,01,21,7.70
2006,12,23,01,22,7.70
2006,12,23,01,23,5.30
2006,12,23,01,24,7.60
2006,12,23,01,25,8.90
2006,12,23,01,26,8.60
2006,12,23,01,27,10.80
2006,12,23,01,28,14.80
2006,12,23,01,29,10.60
2006,12,23,01,30,12.60
2006,12,23,01,31,16.90
2006,12,23,01,32,11.60
2006,12,23,01,33,15.80
2006,12,23,01,34,11.70
2006,12,23,01,35,14.70
2006,12,23,01,36,15.60
2006,12,23,01,37,14.20
2006,12,23,01,38,10.80
2006,12,23,01,39,10.10
2006,12,23,01,40,8.50
2006,12,23,01,41,8.10
2006,12,23,01,42,12.70
2006,12,23,01,43,14.40
2006,12,23,01,44,18.50
2006,12,23,01,45,15.70
2006,12,23,01,46,19.70
2006,12,23,01,47,21.80
2006,12,23,01,48,23.60
2006,12,23,01,49,25.40
2006,12,23,01,50,19.60
2006,12,23,01,51,17.10
2006,12,23,01,52,18.20
2006,12,23,01,53,19.10
2006,12,23,01,54,28.30
2006,12,23,01,55,20.30
2006,12,23,01,56,19.40
2006,12,23,01,57,29.10
2006,12,23,01,58,23.60
2006,12,23,01,59,21.40
2006,12,23,02,00,26.70
2006,12,23,02,01,19.10
2006,12,23,02,02,15.40
2006,12,23,02,03,17.90
2006,12,23,02,04,14.30
2006,12,23,02,05,18.40
2006,12,23,02,06,18.00
2006,12,23,02,07,23.90
2006,12,23,02,08,15.70
2006,12,23,02,09,17.80
2006,12,23,02,10,23.50
2006,12,23,02,11,23.20
2006,12,23,02,12,18.90
2006,12,23,02,13,15.60
2006,12,23,02,14,15.20
2006,12,23,02,15,14.90
2006,12,23,02,16,19.20
2006,12,23,02,17,17.90
2006,12,23,02,18,26.30
2006,12,23,02,19,27.10
2006,12,23,02,20,25.30
2006,12,23,02,21,24.60
2006,12,23,02,22,23.90
2006,12,23,02,23,24.10
2006,12,23,02,24,33.20
2006,12,23,02,25,25.60
2006,12,23,02,26,23.00
2006,12,23,02,27,23.70
2006,12,23,02,28,19.90
2006,12,23,02,29,17.00
2006,12,23,02,30,22.80
2006,12,23,02,31,28.60
2006,12,23,02,32,25.30
2006,12,23,02,33,15.90
2006,12,23,02,34,18.40
2006,12,23,02,35,24.90
2006,12,23,02,36,23.30
2006,12,23,02,37,21.50
2006,12,23,02,38,28.90
2006,12,23,02,39,21.40
2006,12,23,02,40,21.60
2006,12,23,02,41,25.20
2006,12,23,02,42,22.30
2006,12,23,02,43,27.30
2006,12,23,02,44,15.30
2006,12,23,02,45,17.40
2006,12,23,02,46,28.70
2006,12,23,02,47,27.40
2006,12,23,02,48,24.90
2006,12,23,02,49,21.70
2006,12,23,02,50,22.00
2006,12,23,02,51,24.10
2006,12,23,02,52,18.30
2006,12,23,02,53,15.50
2006,12,23,02,54,23.00
2006,12,23,02,55,21.90
2006,12,23,02,56,16.90
2006,12,23,02,57,21.40
2006,12,23,02,58,11.20
2006,12,23,02,59,20.40
2006,12,23,03,00,27.00
2006,12,23,03,01,24.10
2006,12,23,03,02,20.00
2006,12,23,03,03,20.20
2006,12,23,03,04,22.40
2006,12,23,03,05,24.50
2006,12,23,03,06,21.90
2006,12,23,03,07,24.20
2006,12,23,03,08,21.40
2006,12,23,03,09,17.50
2006,12,23,03,10,13.00
2006,12,23,03,11,18.40
2006,12,23,03,12,23.20
2006,12,23,03,13,21.20
2006,12,23,03,14,23.60
2006,12,23,03,15,28.80
2006,12,23,03,16,24.00
2006,12,23,03,17,20.70
2006,12,23,03,18,22.00
2006,12,23,03,19,30.00
2006,12,23,03,20,19.70
2006,12,23,03,21,22.20
2006,12,23,03,22,29.50
2006,12,23,03,23,28.50
2006,12,23,03,24,26.60
2006,12,23,03,25,24.70
2006,12,23,03,26,31.80
2006,12,23,03,27,18.90
2006,12,23,03,28,21.00
2006,12,23,03,29,20.70
2006,12,23,03,30,17.40
2006,12,23,03,31,22.70
2006,12,23,03,32,17.60
2006,12,23,03,33,23.60
2006,12,23,03,34,25.70
2006,12,23,03,35,21.60
2006,12,23,03,36,19.00
2006,12,23,03,37,28.30
2006,12,23,03,38,27.20
2006,12,23,03,39,24.90
2006,12,23,03,40,23.20
2006,12,23,03,41,24.10
2006,12,23,03,42,30.20
2006,12,23,03,43,25.00
2006,12,23,03,44,26.60
2006,12,23,03,45,24.10
2006,12,23,03,46,22.90
2006,12,23,03,47,21.60
2006,12,23,03,48,28.00
2006,12,23,03,49,27.10
2006,12,23,03,50,20.80
2006,12,23,03,51,19.30
2006,12,23,03,52,21.50
2006,12,23,03,53,21.20
2006,12,23,03,54,14.60
2006,12,23,03,55,12.10
2006,12,23,03,56,20.10
2006,12,23,03,57,21.00
2006,12,23,03,58,20.80
2006,12,23,03,59,15.90
2006,12,23,04,00,18.20
2006,12,23,04,01,22.90
2006,12,23,04,02,28.70
2006,12,23,04,03,16.60
2006,12,23,04,04,25.90
2006,12,23,04,05,22.50
2006,12,23,04,06,16.90
2006,12,23,04,07,24.90
2006,12,23,04,08,28.50
2006,12,23,04,09,15.90
2006,12,23,04,10,28.60
2006,12,23,04,11,28.20
2006,12,23,04,12,22.70
2006,12,23,04,13,23.40
2006,12,23,04,14,30.20
2006,12,23,04,15,31.30
2006,12,23,04,16,28.10
2006,12,23,04,17,19.90
2006,12,23,04,18,26.60
2006,12,23,04,19,19.20
2006,12,23,04,20,18.50
2006,12,23,04,21,17.00
2006,12,23,04,22,23.30
2006,12,23,04,23,24.60
2006,12,23,04,24,29.30
2006,12,23,04,25,28.00
2006,12,23,04,26,21.00
2006,12,23,04,27,24.20
2006,12,23,04,28,24.50
2006,12,23,04,29,19.40
2006,12,23,04,30,19.00
2006,12,23,04,31,14.70
2006,12,23,04,32,19.60
2006,12,23,04,33,18.90
2006,12,23,04,34,21.50
2006,12,23,04,35,27.90
2006,12,23,04,36,25.20
2006,12,23,04,37,20.60
2006,12,23,04,38,21.70
2006,12,23,04,39,15.50
2006,12,23,04,40,22.10
2006,12,23,04,41,23.60
2006,12,23,04,42,23.90
2006,12,23,04,43,23.00
2006,12,23,04,44,12.10
2006,12,23,04,45,16.40
2006,12,23,04,46,24.00
2006,12,23,04,47,14.20
2006,12,23,04,48,16.90
2006,12,23,04,49,21.80
2006,12,23,04,50,16.80
2006,12,23,04,51,22.10
2006,12,23,04,52,21.60
2006,12,23,04,53,28.80
2006,12,23,04,54,26.40
2006,12,23,04,55,18.10
2006,12,23,04,56,20.60
2006,12,23,04,57,22.50
2006,12,23,04,58,21.40
2006,12,23,04,59,16.90
2006,12,23,05,00,24.10
2006,12,23,05,01,26.00
2006,12,23,05,02,25.50
2006,12,23,05,03,21.30
2006,12,23,05,04,18.00
2006,12,23,05,05,17.90
2006,12,23,05,06,12.60
2006,12,23,05,07,28.30
2006,12,23,05,08,27.20
2006,12,23,05,09,26.00
2006,12,23,05,10,21.90
2006,12,23,05,11,13.80
2006,12,23,05,12,20.80
2006,12,23,05,13,25.40
2006,12,23,05,14,25.60
2006,12,23,05,15,23.70
2006,12,23,05,16,25.60
2006,12,23,05,17,12.50
2006,12,23,05,18,17.40
2006,12,23,05,19,24.60
2006,12,23,05,20,24.60
2006,12,23,05,21,26.40
2006,12,23,05,22,19.10
2006,12,23,05,23,13.20
2006,12,23,05,24,14.10
2006,12,23,05,25,19.80
2006,12,23,05,26,18.60
2006,12,23,05,27,15.70
2006,12,23,05,28,21.60
2006,12,23,05,29,5.50
2006,12,23,05,30,6.80
2006,12,23,05,31,5.80
2006,12,23,05,32,12.10
2006,12,23,05,33,18.60
2006,12,23,05,34,12.10
2006,12,23,05,35,16.30
2006,12,23,05,36,16.60
2006,12,23,05,37,17.10
2006,12,23,05,38,17.30
2006,12,23,05,39,7.20
2006,12,23,05,40,9.30
2006,12,23,05,41,4.70
2006,12,23,05,42,4.20
2006,12,23,05,43,15.30
2006,12,23,05,44,9.70
2006,12,23,05,45,4.60
2006,12,23,05,46,11.70
2006,12,23,05,47,19.40
2006,12,23,05,48,10.30
2006,12,23,05,49,6.10
2006,12,23,05,50,3.20
2006,12,23,05,51,2.70
2006,12,23,05,52,6.40
2006,12,23,05,53,7.00
2006,12,23,05,54,3.10
2006,12,23,05,55,3.10
2006,12,23,05,56,3.40
2006,12,23,05,57,1.90
2006,12,23,05,58,2.70
2006,12,23,05,59,0.80
2006,12,23,06,00,3.10
2006,12,23,06,01,3.90
2006,12,23,06,02,0.60
2006,12,23,06,03,0.00
2006,12,23,06,04,2.90
2006,12,23,06,05,4.20
2006,12,23,06,06,4.10
2006,12,23,06,07,3.60
2006,12,23,06,08,0.80
2006,12,23,06,09,2.50
2006,12,23,06,10,1.50
2006,12,23,06,11,0.50
2006,12,23,06,12,3.60
2006,12,23,06,13,3.50
2006,12,23,06,14,5.20
2006,12,23,06,15,4.70
2006,12,23,06,16,3.90
2006,12,23,06,17,2.20
2006,12,23,06,18,0.40
2006,12,23,06,19,1.90
2006,12,23,06,20,2.20
2006,12,23,06,21,0.90
2006,12,23,06,22,0.90
2006,12,23,06,23,2.10
2006,12,23,06,24,0.90
2006,12,23,06,25,0.00
2006,12,23,06,26,0.00
2006,12,23,06,27,0.00
2006,12,23,06,28,0.90
2006,12,23,06,29,3.60
2006,12,23,06,30,2.50
2006,12,23,06,31,2.30
2006,12,23,06,32,1.10
2006,12,23,06,33,4.30
2006,12,23,06,34,5.50
2006,12,23,06,35,4.20
2006,12,23,06,36,5.20
2006,12,23,06,37,1.60
2006,12,23,06,38,0.00
2006,12,23,06,39,0.70
2006,12,23,06,40,1.60
2006,12,23,06,41,0.80
2006,12,23,06,42,0.20
2006,12,23,06,43,0.00
2006,12,23,06,44,0.20
2006,12,23,06,45,3.20
2006,12,23,06,46,2.10
2006,12,23,06,47,2.30
2006,12,23,06,48,1.50
2006,12,23,06,49,2.10
2006,12,23,06,50,0.20
2006,12,23,06,51,0.60
2006,12,23,06,52,0.30
2006,12,23,06,53,0.30
2006,12,23,06,54,1.30
2006,12,23,06,55,1.70
2006,12,23,06,56,3.10
2006,12,23,06,57,3.30
2006,12,23,06,58,1.50
2006,12,23,06,59,1.40
2006,12,23,07,00,3.70
2006,12,23,07,01,2.70
2006,12,23,07,02,4.10
2006,12,23,07,03,2.90
2006,12,23,07,04,1.60
2006,12,23,07,05,2.80
2006,12,23,07,06,1.80
2006,12,23,07,07,3.10
2006,12,23,07,08,3.80
2006,12,23,07,09,1.70
2006,12,23,07,10,0.30
2006,12,23,07,11,2.40
2006,12,23,07,12,1.50
2006,12,23,07,13,1.50
2006,12,23,07,14,3.50
2006,12,23,07,15,2.50
2006,12,23,07,16,0.20
2006,12,23,07,17,0.20
2006,12,23,07,18,0.50
2006,12,23,07,19,1.10
2006,12,23,07,20,2.40
2006,12,23,07,21,2.20
2006,12,23,07,22,2.00
2006,12,23,07,23,1.70
2006,12,23,07,24,3.40
2006,12,23,07,25,3.80
2006,12,23,07,26,2.80
2006,12,23,07,27,1.40
2006,12,23,07,28,4.00
2006,12,23,07,29,2.90
2006,12,23,07,30,3.10
2006,12,23,07,31,5.30
2006,12,23,07,32,5.20
2006,12,23,07,33,3.20
2006,12,23,07,34,2.00
2006,12,23,07,35,0.80
2006,12,23,07,36,0.60
2006,12,23,07,37,1.10
2006,12,23,07,38,1.10
2006,12,23,07,39,2.40
2006,12,23,07,40,2.60
2006,12,23,07,41,2.30
2006,12,23,07,42,1.80
2006,12,23,07,43,3.30
2006,12,23,07,44,1.90
2006,12,23,07,45,3.10
2006,12,23,07,46,3.50
2006,12,23,07,47,3.00
2006,12,23,07,48,3.80
2006,12,23,07,49,2.40
2006,12,23,07,50,0.30
2006,12,23,07,51,1.20
2006,12,23,07,52,0.60
2006,12,23,07,53,2.80
2006,12,23,07,54,3.20
2006,12,23,07,55,3.70
2006,12,23,07,56,2.60
2006,12,23,07,57,2.30
2006,12,23,07,58,2.10
2006,12,23,07,59,2.70
2006,12,23,08,00,4.80
2006,12,23,08,01,5.10
2006,12,23,08,02,3.40
2006,12,23,08,03,3.00
2006,12,23,08,04,2.30
2006,12,23,08,05,3.60
2006,12,23,08,06,4.00
2006,12,23,08,07,3.60
2006,12,23,08,08,2.70
2006,12,23,08,09,3.40
2006,12,23,08,10,4.00
2006,12,23,08,11,4.70
2006,12,23,08,12,6.40
2006,12,23,08,13,3.90
2006,12,23,08,14,3.70
2006,12,23,08,15,3.70
2006,12,23,08,16,3.00
2006,12,23,08,17,5.60
2006,12,23,08,18,4.70
2006,12,23,08,19,4.60
2006,12,23,08,20,2.80
2006,12,23,08,21,3.00
2006,12,23,08,22,3.90
2006,12,23,08,23,5.10
2006,12,23,08,24,4.20
2006,12,23,08,25,2.10
2006,12,23,08,26,2.80
2006,12,23,08,27,4.30
2006,12,23,08,28,5.10
2006,12,23,08,29,3.30
2006,12,23,08,30,3.50
2006,12,23,08,31,3.00
2006,12,23,08,32,4.10
2006,12,23,08,33,4.30
2006,12,23,08,34,5.00
2006,12,23,08,35,5.30
2006,12,23,08,36,4.80
2006,12,23,08,37,4.80
2006,12,23,08,38,5.60
2006,12,23,08,39,7.40
2006,12,23,08,40,5.00
2006,12,23,08,41,6.00
2006,12,23,08,42,4.40
2006,12,23,08,43,4.60
2006,12,23,08,44,5.20
2006,12,23,08,45,3.90
2006,12,23,08,46,5.80
2006,12,23,08,47,7.30
2006,12,23,08,48,4.30
2006,12,23,08,49,1.60
2006,12,23,08,50,2.90
2006,12,23,08,51,0.60
2006,12,23,08,52,4.30
2006,12,23,08,53,3.50
2006,12,23,08,54,6.90
2006,12,23,08,55,7.20
2006,12,23,08,56,6.70
2006,12,23,08,57,4.20
2006,12,23,08,58,4.00
2006,12,23,08,59,2.40
2006,12,23,09,00,4.00
2006,12,23,09,01,5.30
2006,12,23,09,02,7.00
2006,12,23,09,03,5.70
2006,12,23,09,04,1.50
2006,12,23,09,05,0.00
2006,12,23,09,06,0.00
2006,12,23,09,07,0.10
2006,12,23,09,08,1.50
2006,12,23,09,09,4.00
2006,12,23,09,10,4.90
2006,12,23,09,11,4.70
2006,12,23,09,12,4.60
2006,12,23,09,13,4.60
2006,12,23,09,14,5.40
2006,12,23,09,15,3.90
2006,12,23,09,16,2.50
2006,12,23,09,17,1.40
2006,12,23,09,18,3.10
2006,12,23,09,19,4.00
2006,12,23,09,20,1.00
2006,12,23,09,21,1.10
2006,12,23,09,22,1.90
2006,12,23,09,23,0.60
2006,12,23,09,24,1.30
2006,12,23,09,25,3.50
2006,12,23,09,26,2.70
2006,12,23,09,27,4.60
2006,12,23,09,28,3.70
2006,12,23,09,29,4.10
2006,12,23,09,30,2.40
2006,12,23,09,31,0.90
2006,12,23,09,32,1.10
2006,12,23,09,33,0.50
2006,12,23,09,34,1.90
2006,12,23,09,35,1.40
2006,12,23,09,36,1.50
2006,12,23,09,37,2.00
2006,12,23,09,38,0.20
2006,12,23,09,39,0.00
2006,12,23,09,40,0.80
2006,12,23,09,41,2.20
2006,12,23,09,42,0.20
2006,12,23,09,43,2.70
2006,12,23,09,44,2.50
2006,12,23,09,45,1.50
2006,12,23,09,46,0.20
2006,12,23,09,47,0.00
2006,12,23,09,48,0.00
2006,12,23,09,49,0.00
2006,12,23,09,50,0.50
2006,12,23,09,51,0.30
2006,12,23,09,52,1.00
2006,12,23,09,53,0.00
2006,12,23,09,54,0.10
2006,12,23,09,55,0.20
2006,12,23,09,56,0.30
2006,12,23,09,57,1.40
2006,12,23,09,58,2.30
2006,12,23,09,59,0.30
2006,12,23,10,00,0.70
2006,12,23,10,01,1.30
2006,12,23,10,02,1.00
2006,12,23,10,03,0.30
2006,12,23,10,04,0.80
2006,12,23,10,05,0.70
2006,12,23,10,06,0.70
2006,12,23,10,07,2.10
2006,12,23,10,08,1.50
2006,12,23,10,09,0.50
2006,12,23,10,10,0.40
2006,12,23,10,11,2.10
2006,12,23,10,12,2.40
2006,12,23,10,13,1.00
2006,12,23,10,14,0.20
2006,12,23,10,15,2.40
2006,12,23,10,16,2.60
2006,12,23,10,17,3.70
2006,12,23,10,18,1.90
2006,12,23,10,19,1.00
2006,12,23,10,20,0.60
2006,12,23,10,21,1.90
2006,12,23,10,22,0.60
2006,12,23,10,23,0.00
2006,12,23,10,24,0.20
2006,12,23,10,25,0.10
2006,12,23,10,26,0.20
2006,12,23,10,27,0.60
2006,12,23,10,28,0.60
2006,12,23,10,29,1.40
2006,12,23,10,30,0.20
2006,12,23,10,31,2.40
2006,12,23,10,32,3.10
2006,12,23,10,33,4.10
2006,12,23,10,34,1.70
2006,12,23,10,35,3.30
2006,12,23,10,36,1.20
2006,12,23,10,37,0.20
2006,12,23,10,38,0.70
2006,12,23,10,39,3.10
2006,12,23,10,40,2.40
2006,12,23,10,41,2.00
2006,12,23,10,42,1.10
2006,12,23,10,43,5.10
2006,12,23,10,44,3.10
2006,12,23,10,45,4.10
2006,12,23,10,46,4.40
2006,12,23,10,47,2.60
2006,12,23,10,48,2.50
2006,12,23,10,49,1.70
2006,12,23,10,50,3.80
2006,12,23,10,51,3.70
2006,12,23,10,52,2.30
2006,12,23,10,53,4.60
2006,12,23,10,54,5.20
2006,12,23,10,55,5.10
2006,12,23,10,56,3.50
2006,12,23,10,57,5.10
2006,12,23,10,58,3.70
2006,12,23,10,59,3.80
2006,12,23,11,00,1.50
2006,12,23,11,01,4.20
2006,12,23,11,02,3.10
2006,12,23,11,03,3.00
2006,12,23,11,04,4.20
2006,12,23,11,05,3.30
2006,12,23,11,06,2.90
2006,12,23,11,07,1.40
2006,12,23,11,08,1.20
2006,12,23,11,09,2.10
2006,12,23,11,10,4.10
2006,12,23,11,11,1.20
2006,12,23,11,12,0.20
2006,12,23,11,13,0.10
2006,12,23,11,14,0.20
2006,12,23,11,15,0.20
2006,12,23,11,16,1.70
2006,12,23,11,17,2.60
2006,12,23,11,18,2.30
2006,12,23,11,19,1.50
2006,12,23,11,20,3.00
2006,12,23,11,21,3.00
2006,12,23,11,22,4.50
2006,12,23,11,23,4.30
2006,12,23,11,24,5.60
2006,12,23,11,25,5.30
2006,12,23,11,26,4.30
2006,12,23,11,27,3.20
2006,12,23,11,28,3.50
2006,12,23,11,29,3.10
2006,12,23,11,30,4.30
2006,12,23,11,31,3.10
2006,12,23,11,32,2.10
2006,12,23,11,33,3.90
2006,12,23,11,34,4.90
2006,12,23,11,35,3.10
2006,12,23,11,36,2.80
2006,12,23,11,37,1.10
2006,12,23,11,38,0.20
2006,12,23,11,39,1.90
2006,12,23,11,40,4.70
2006,12,23,11,41,4.50
2006,12,23,11,42,3.50
2006,12,23,11,43,5.70
2006,12,23,11,44,4.90
2006,12,23,11,45,6.20
2006,12,23,11,46,5.40
2006,12,23,11,47,5.50
2006,12,23,11,48,2.70
2006,12,23,11,49,2.00
2006,12,23,11,50,0.60
2006,12,23,11,51,2.70
2006,12,23,11,52,1.30
2006,12,23,11,53,2.00
2006,12,23,11,54,2.30
2006,12,23,11,55,1.70
2006,12,23,11,56,2.70
2006,12,23,11,57,1.00
2006,12,23,11,58,1.40
2006,12,23,11,59,2.50
2006,12,23,12,00,1.50
2006,12,23,12,01,0.60
2006,12,23,12,02,1.10
2006,12,23,12,03,2.90
2006,12,23,12,04,0.60
2006,12,23,12,05,1.50
2006,12,23,12,06,1.90
2006,12,23,12,07,2.20
2006,12,23,12,08,2.70
2006,12,23,12,09,3.20
2006,12,23,12,10,3.50
2006,12,23,12,11,4.70
2006,12,23,12,12,4.00
2006,12,23,12,13,3.50
2006,12,23,12,14,2.80
2006,12,23,12,15,0.00
2006,12,23,12,16,0.20
2006,12,23,12,17,0.70
2006,12,23,12,18,0.50
2006,12,23,12,19,0.50
2006,12,23,12,20,0.10
2006,12,23,12,21,0.40
2006,12,23,12,22,2.40
2006,12,23,12,23,1.90
2006,12,23,12,24,2.60
2006,12,23,12,25,2.50
2006,12,23,12,26,0.80
2006,12,23,12,27,0.50
2006,12,23,12,28,4.00
2006,12,23,12,29,4.40
2006,12,23,12,30,2.20
2006,12,23,12,31,3.70
2006,12,23,12,32,3.70
2006,12,23,12,33,2.70
2006,12,23,12,34,2.40
2006,12,23,12,35,3.70
2006,12,23,12,36,1.30
2006,12,23,12,37,2.10
2006,12,23,12,38,4.30
2006,12,23,12,39,5.40
2006,12,23,12,40,7.70
2006,12,23,12,41,7.30
2006,12,23,12,42,8.10
2006,12,23,12,43,7.50
2006,12,23,12,44,3.80
2006,12,23,12,45,3.40
2006,12,23,12,46,3.10
2006,12,23,12,47,1.50
2006,12,23,12,48,1.50
2006,12,23,12,49,1.90
2006,12,23,12,50,3.20
2006,12,23,12,51,4.70
2006,12,23,12,52,5.40
2006,12,23,12,53,4.60
2006,12,23,12,54,1.90
2006,12,23,12,55,0.80
2006,12,23,12,56,1.00
2006,12,23,12,57,3.50
2006,12,23,12,58,2.70
2006,12,23,12,59,2.90
2006,12,23,13,00,3.20
2006,12,23,13,01,4.20
2006,12,23,13,02,3.90
2006,12,23,13,03,0.90
2006,12,23,13,04,1.90
2006,12,23,13,05,2.50
2006,12,23,13,06,2.50
2006,12,23,13,07,2.60
2006,12,23,13,08,2.60
2006,12,23,13,09,3.00
2006,12,23,13,10,4.80
2006,12,23,13,11,1.70
2006,12,23,13,12,1.90
2006,12,23,13,13,4.10
2006,12,23,13,14,3.70
2006,12,23,13,15,2.20
2006,12,23,13,16,4.00
2006,12,23,13,17,3.60
2006,12,23,13,18,2.50
2006,12,23,13,19,2.50
2006,12,23,13,20,1.10
2006,12,23,13,21,1.00
2006,12,23,13,22,2.20
2006,12,23,13,23,0.70
2006,12,23,13,24,3.50
2006,12,23,13,25,5.10
2006,12,23,13,26,1.80
2006,12,23,13,27,4.10
2006,12,23,13,28,3.50
2006,12,23,13,29,3.00
2006,12,23,13,30,2.60
2006,12,23,13,31,1.40
2006,12,23,13,32,7.20
2006,12,23,13,33,4.20
2006,12,23,13,34,3.30
2006,12,23,13,35,4.00
2006,12,23,13,36,2.50
2006,12,23,13,37,1.80
2006,12,23,13,38,4.50
2006,12,23,13,39,2.50
2006,12,23,13,40,4.70
2006,12,23,13,41,4.40
2006,12,23,13,42,2.40
2006,12,23,13,43,6.20
2006,12,23,13,44,7.80
2006,12,23,13,45,7.10
2006,12,23,13,46,7.70
2006,12,23,13,47,5.30
2006,12,23,13,48,4.20
2006,12,23,13,49,4.80
2006,12,23,13,50,6.70
2006,12,23,13,51,3.50
2006,12,23,13,52,4.70
2006,12,23,13,53,5.10
2006,12,23,13,54,4.90
2006,12,23,13,55,6.80
2006,12,23,13,56,7.70
2006,12,23,13,57,5.40
2006,12,23,13,58,5.20
2006,12,23,13,59,4.00
2006,12,23,14,00,8.40
2006,12,23,14,01,8.30
2006,12,23,14,02,8.60
2006,12,23,14,03,6.90
2006,12,23,14,04,10.90
2006,12,23,14,05,8.10
2006,12,23,14,06,11.70
2006,12,23,14,07,6.40
2006,12,23,14,08,7.50
2006,12,23,14,09,8.50
2006,12,23,14,10,8.40
2006,12,23,14,11,4.90
2006,12,23,14,12,4.00
2006,12,23,14,13,6.40
2006,12,23,14,14,12.00
2006,12,23,14,15,9.40
2006,12,23,14,16,6.90
2006,12,23,14,17,8.00
2006,12,23,14,18,8.30
2006,12,23,14,19,12.70
2006,12,23,14,20,8.00
2006,12,23,14,21,5.80
2006,12,23,14,22,7.70
2006,12,23,14,23,4.30
2006,12,23,14,24,7.60
2006,12,23,14,25,11.90
2006,12,23,14,26,12.50
2006,12,23,14,27,15.10
2006,12,23,14,28,11.00
2006,12,23,14,29,10.70
2006,12,23,14,30,7.20
2006,12,23,14,31,6.60
2006,12,23,14,32,9.70
2006,12,23,14,33,11.70
2006,12,23,14,34,9.10
2006,12,23,14,35,12.30
2006,12,23,14,36,12.00
2006,12,23,14,37,8.60
2006,12,23,14,38,13.50
2006,12,23,14,39,8.30
2006,12,23,14,40,5.70
2006,12,23,14,41,8.50
2006,12,23,14,42,10.10
2006,12,23,14,43,16.00
2006,12,23,14,44,7.60
2006,12,23,14,45,6.90
2006,12,23,14,46,9.20
2006,12,23,14,47,12.70
2006,12,23,14,48,10.50
2006,12,23,14,49,6.40
2006,12,23,14,50,5.20
2006,12,23,14,51,9.70
2006,12,23,14,52,7.50
2006,12,23,14,53,7.00
2006,12,23,14,54,7.90
2006,12,23,14,55,4.60
2006,12,23,14,56,4.50
2006,12,23,14,57,5.80
2006,12,23,14,58,5.50
2006,12,23,14,59,3.60
2006,12,23,15,00,6.30
2006,12,23,15,01,3.50
2006,12,23,15,02,9.70
2006,12,23,15,03,8.80
2006,12,23,15,04,6.60
2006,12,23,15,05,3.10
2006,12,23,15,06,4.20
2006,12,23,15,07,4.40
2006,12,23,15,08,3.30
2006,12,23,15,09,4.00
2006,12,23,15,10,3.50
2006,12,23,15,11,5.30
2006,12,23,15,12,4.40
2006,12,23,15,13,2.90
2006,12,23,15,14,2.80
2006,12,23,15,15,3.70
2006,12,23,15,16,1.90
2006,12,23,15,17,1.60
2006,12,23,15,18,0.70
2006,12,23,15,19,0.30
2006,12,23,15,20,0.60
2006,12,23,15,21,1.70
2006,12,23,15,22,0.00
2006,12,23,15,23,0.30
2006,12,23,15,24,4.10
2006,12,23,15,25,3.00
2006,12,23,15,26,0.30
2006,12,23,15,27,0.60
2006,12,23,15,28,0.40
2006,12,23,15,29,0.00
2006,12,23,15,30,0.00
2006,12,23,15,31,0.00
2006,12,23,15,32,0.00
2006,12,23,15,33,0.60
2006,12,23,15,34,0.10
2006,12,23,15,35,0.30
2006,12,23,15,36,0.90
2006,12,23,15,37,2.80
2006,12,23,15,38,6.90
2006,12,23,15,39,3.90
2006,12,23,15,40,2.70
2006,12,23,15,41,1.10
2006,12,23,15,42,0.20
2006,12,23,15,43,0.20
2006,12,23,15,44,0.70
2006,12,23,15,45,0.00
2006,12,23,15,46,0.00
2006,12,23,15,47,0.20
2006,12,23,15,48,3.50
2006,12,23,15,49,3.00
2006,12,23,15,50,4.40
2006,12,23,15,51,1.60
2006,12,23,15,52,1.10
2006,12,23,15,53,2.50
2006,12,23,15,54,2.30
2006,12,23,15,55,2.00
2006,12,23,15,56,0.10
2006,12,23,15,57,0.40
2006,12,23,15,58,3.70
2006,12,23,15,59,2.70
2006,12,23,16,00,1.80
2006,12,23,16,01,0.80
2006,12,23,16,02,5.30
2006,12,23,16,03,4.10
2006,12,23,16,04,1.70
2006,12,23,16,05,3.70
2006,12,23,16,06,3.80
2006,12,23,16,07,0.10
2006,12,23,16,08,1.00
2006,12,23,16,09,0.20
2006,12,23,16,10,0.20
2006,12,23,16,11,1.90
2006,12,23,16,12,0.00
2006,12,23,16,13,0.00
2006,12,23,16,14,0.00
2006,12,23,16,15,0.90
2006,12,23,16,16,0.80
2006,12,23,16,17,0.20
2006,12,23,16,18,0.00
2006,12,23,16,19,0.00
2006,12,23,16,20,0.00
2006,12,23,16,21,0.00
2006,12,23,16,22,0.00
2006,12,23,16,23,0.00
2006,12,23,16,24,0.00
2006,12,23,16,25,0.00
2006,12,23,16,26,0.10
2006,12,23,16,27,0.30
2006,12,23,16,28,0.40
2006,12,23,16,29,0.70
2006,12,23,16,30,0.10
2006,12,23,16,31,1.10
2006,12,23,16,32,0.30
2006,12,23,16,33,0.10
2006,12,23,16,34,0.00
2006,12,23,16,35,1.90
2006,12,23,16,36,0.60
2006,12,23,16,37,1.00
2006,12,23,16,38,2.30
2006,12,23,16,39,3.60
2006,12,23,16,40,3.00
2006,12,23,16,41,3.80
2006,12,23,16,42,3.00
2006,12,23,16,43,0.60
2006,12,23,16,44,1.10
2006,12,23,16,45,0.40
2006,12,23,16,46,0.80
2006,12,23,16,47,0.00
2006,12,23,16,48,0.00
2006,12,23,16,49,0.40
2006,12,23,16,50,1.80
2006,12,23,16,51,1.40
2006,12,23,16,52,0.10
2006,12,23,16,53,0.20
2006,12,23,16,54,0.60
2006,12,23,16,55,0.50
2006,12,23,16,56,0.00
2006,12,23,16,57,0.00
2006,12,23,16,58,0.00
2006,12,23,16,59,0.00
2006,12,23,17,00,0.00
2006,12,23,17,01,0.00
2006,12,23,17,02,0.00
2006,12,23,17,03,0.00
2006,12,23,17,04,0.50
2006,12,23,17,05,0.30
2006,12,23,17,06,0.30
2006,12,23,17,07,0.30
2006,12,23,17,08,1.00
2006,12,23,17,09,0.00
2006,12,23,17,10,0.10
2006,12,23,17,11,0.30
2006,12,23,17,12,0.00
2006,12,23,17,13,0.80
2006,12,23,17,14,0.00
2006,12,23,17,15,0.20
2006,12,23,17,16,0.00
2006,12,23,17,17,0.10
2006,12,23,17,18,1.00
2006,12,23,17,19,2.30
2006,12,23,17,20,2.50
2006,12,23,17,21,3.30
2006,12,23,17,22,2.30
2006,12,23,17,23,1.00
2006,12,23,17,24,0.40
2006,12,23,17,25,0.90
2006,12,23,17,26,0.60
2006,12,23,17,27,0.00
2006,12,23,17,28,0.00
2006,12,23,17,29,0.00
2006,12,23,17,30,0.20
2006,12,23,17,31,0.00
2006,12,23,17,32,0.00
2006,12,23,17,33,0.00
2006,12,23,17,34,0.00
2006,12,23,17,35,0.00
2006,12,23,17,36,0.10
2006,12,23,17,37,0.00
2006,12,23,17,38,0.10
2006,12,23,17,39,0.10
2006,12,23,17,40,0.20
2006,12,23,17,41,1.20
2006,12,23,17,42,2.10
2006,12,23,17,43,0.40
2006,12,23,17,44,0.00
2006,12,23,17,45,1.30
2006,12,23,17,46,0.20
2006,12,23,17,47,0.90
2006,12,23,17,48,1.70
2006,12,23,17,49,0.30
2006,12,23,17,50,1.10
2006,12,23,17,51,1.40
2006,12,23,17,52,1.80
2006,12,23,17,53,2.20